Back to catalog

COSMOS 2417

GLONASS

AliveNavigationMEO
NORAD 28917·PAYLOAD·🇷🇺 Russia

Launched Dec 25, 2005 from Baikonur Cosmodrome

Loading…

Next Passes (next 24 hours)

TLE

FreshSource: Space-Track

Epoch: Sep 9, 2026, 12:59 UTC

1 28917U 05050C   26252.54111478 -.00000033  00000-0  00000-0 0  9992
2 28917  65.5213 313.2954 0014615  97.7497 261.6515  2.13104580161028

Track COSMOS 2417 in real time with AllMySat

Download on the App Store